Location: Palomar Mountain Lodge
(33.3110°N, 116.8495°W)
Time: 00:41:13
(UTC-07:00)

Hubble Space Telescope - Pass Details

Date: 14 June 2018
Orbit: 537 x 541 km, 28.5° (Epoch: 19 June)

Event Time Altitude Azimuth Distance (km) Brightness Sun altitude
Rises 21:40:41 0° 258° (WSW) 2,667 4.8 -18.0°
Reaches altitude 10° 21:43:01 10° 251° (WSW) 1,776 3.7 -18.3°
Maximum altitude 21:46:54 42° 180° (S) 762 1.2 -18.9°
Enters shadow 21:47:01 42° 176° (S) 764 1.1 -18.9°
